User: anonymous   Login
Location: Unspecified
(0.0000°N, 0.0000°E)
Time: 17:08:33
(UTC+00:00)
Language:

APRIZESAT 5 - Orbit

View from above orbital plane
View from above orbital plane
View from above satellite
View from above satellite

Ground track
Ground track

The orbit data is extracted from the following two-line orbital elements,

1 37792U 11044E   21025.05008192  .00000074  00000-0  19067-4 0  9991
2 37792  98.3921 238.4143 0058073 181.1728 178.9353 14.75450359508178
Epoch (UTC): 25 January 2021 01:12:07
Eccentricity: 0.0058073
inclination: 98.3921°
perigee height: 603 km
apogee height: 684 km
right ascension of ascending node: 238.4143°
argument of perigee: 181.1728°
revolutions per day: 14.75450359
mean anomaly at epoch: 178.9353°
orbit number at epoch: 50817

The dashed part of the orbit path shows where the satellite is in the earth's shadow,  

DLR